Погода в Онне

Япония     26°29′40″N   127°52′30″E
темп.,
°C
ветер,
м/с
пор.,
м/с
влажн.,
%
обл.,
%
осадки,
мм/ч
давл.,
гПа
погр.,
м
11 апреля, вс
вс1100:00+21в8107531 0.1 10231045
03:00+20в7107724 0.4 1021933
06:00+20всв8107557 0.3 10221009
09:00+21в8106814 0.3 10241153
12:00+22в9106118 0.0 10231287
15:00+22в810615 0.0 10221135
18:00+20всв710660 0.0 10221032
21:00+20в710670 0.0 1023981
12 апреля, пн
пн1200:00+20в710660 0.0 1023948
03:00+20в79680 0.0 1021923
06:00+20в79697 0.0 1021954
09:00+22вюв796524 0.0 10211261
12:00+23вюв686773 0.1 10201125
15:00+23вюв68734 0.2 1018961
18:00+22вюв69825 0.4 1018762
21:00+21вюв6108632 0.7 1019719
13 апреля, вт
вт1300:00+21юв7108652 0.4 1018757
03:00+21юв598720 0.8 1016594
06:00+21ююв589025 0.3 1016534
09:00+23ю578240 0.8 1016611
12:00+24юз467545 0.9 1015811
15:00+25з57665 1.4 1014681
18:00+22сз588426 0.0 1014643
21:00+21с478663 0.0 1015586
14 апреля, ср
ср1400:00+20с358493 0.0 1015434
03:00+20с347683 0.0 1014567
06:00+19ссз367810 0.0 1015479
09:00+21с566415 0.0 10161035
12:00+22с676046 0.0 10151237
15:00+22с78580 0.0 10141276
18:00+19с69614 0.0 10151020
21:00+18с58655 0.0 1016736
15 апреля, чт
чт1500:00+17ссв486666 0.0 1016628
03:00+17ссв3667100 0.0 1015530
06:00+18с3564100 0.0 1015605
09:00+20ссв44558 0.0 10161104
12:00+22св33501 0.0 10141185
15:00+22всв33515 0.0 10131096
18:00+20ссв44619 0.0 1014923
21:00+18всв3571100 0.0 1016382